[[{"header":{"parameterUnit":"m.s-1","parameterCategory":2,"la1":30.2992,"la2":30.254,"lo1":-89.0895,"lo2":-89.0443,"dy":0.0025,"dx":0.0025,"nx":19,"ny":19,"refTime":"2026-05-09T03:00:00:Z","depth":"0","parameterNumber":2,"parameterNumberName":"U-component_of_CURRENTS"},"data":[0,0,0,-0.0793,-0.0794,-0.0825,-0.0825,-0.0799,-0.0798,0,0,0,0,0,0,0,0,0,0,0,-0.0782,-0.0783,-0.0793,-0.0794,-0.0825,-0.0825,-0.0799,-0.0798,0,0,0,0,0,0,0,0,0,0,0,-0.0782,-0.0783,-0.0783,-0.0794,-0.0825,-0.0825,-0.0799,-0.0789,0,0,0,0,0,0,0,0,0,0,-0.0766,-0.0772,-0.0783,-0.0783,-0.0794,-0.0825,-0.0825,-0.0789,-0.079,-0.0769,0,-0.0785,0,-0.0795,-0.0796,-0.0796,0,0,0,-0.0783,-0.0772,-0.078,-0.0784,-0.0795,-0.0825,-0.0808,-0.079,-0.079,-0.0769,-0.0785,-0.0785,-0.0794,-0.0796,-0.0796,-0.0792,-0.0792,0,0,-0.0781,-0.0784,-0.078,-0.0781,-0.0816,-0.0807,-0.0809,-0.0791,-0.0795,-0.0785,-0.0784,-0.0794,-0.0796,-0.0795,-0.0791,-0.0792,0,0,0,-0.0784,-0.0783,-0.0792,-0.0782,-0.0795,-0.0808,-0.081,-0.0796,-0.08,-0.0784,-0.0793,-0.0795,-0.0795,-0.0791,-0.0792,-0.0838,0,0,0,-0.0782,-0.0785,-0.0792,-0.0793,-0.0796,-0.0806,-0.0816,-0.0801,-0.08,-0.0793,-0.0795,-0.0795,-0.0791,-0.0791,-0.0837,-0.0845,0,0,0,-0.0779,-0.0784,-0.0792,-0.0793,-0.0811,-0.0807,-0.0809,-0.0801,-0.0805,-0.0796,-0.0795,-0.0791,-0.0791,-0.0835,-0.0842,-0.0849,0,0,0,-0.0773,-0.0808,-0.0793,-0.0837,-0.0811,-0.085,-0.081,-0.0834,-0.0834,-0.0795,-0.0791,-0.0791,-0.0835,-0.0841,-0.0848,-0.0894,-0.0904,0,0,-0.0815,-0.0813,-0.084,-0.0828,-0.0874,-0.0844,-0.088,-0.0861,-0.0828,-0.079,-0.079,-0.0837,-0.0842,-0.0849,-0.0923,-0.0932,0,0,0,-0.0853,-0.0864,-0.0881,-0.0901,-0.092,-0.0917,-0.0904,-0.0888,-0.086,-0.0832,-0.0834,-0.0835,-0.0839,-0.0863,-0.0871,-0.0989,-0.0794,-0.0794,-0.0794,-0.088,-0.0894,-0.0929,-0.0942,-0.0963,-0.0965,-0.0962,-0.0926,-0.0901,-0.0894,-0.0872,-0.0906,-0.0934,-0.094,-0.1061,-0.0876,-0.0877,-0.0877,-0.0877,-0.0913,-0.0926,-0.0937,-0.097,-0.0973,-0.0989,-0.0982,-0.0968,-0.0943,-0.0913,-0.0914,-0.091,-0.095,-0.1077,-0.088,-0.0879,-0.0879,-0.0879,-0.0878,-0.0906,-0.0915,-0.093,-0.0955,-0.0973,-0.0987,-0.0998,-0.0988,-0.0967,-0.0974,-0.0979,-0.0979,-0.1089,-0.097,-0.097,-0.097,-0.097,-0.097,-0.097,-0.0889,-0.0907,-0.0913,-0.094,-0.0951,-0.0972,-0.0999,-0.101,-0.1026,-0.1022,-0.1023,-0.1124,-0.0933,-0.0929,-0.0971,-0.0971,-0.0971,-0.0971,-0.0971,-0.0892,-0.0884,-0.0894,-0.0902,-0.0933,-0.0959,-0.1002,-0.1061,-0.1072,-0.1088,-0.1231,-0.1048,-0.103,-0.1025,-0.1022,-0.1086,-0.1086,-0.1086,-0.1086,-0.0879,-0.088,-0.088,-0.0887,-0.0911,-0.0951,-0.1034,-0.1143,-0.1266,-0.135,-0.1347,-0.1368,-0.1358,-0.136,-0.1347,-0.135,-0.1496,-0.1497,-0.1498,-0.0875,-0.0873,-0.0868,-0.0872,-0.0898,-0.0948,-0.1049,-0.1286,-0.1495,-0.1525,-0.1507,-0.1489,-0.1529,-0.1503,-0.1508,-0.1481,-0.1485,0,0]},{"header":{"parameterUnit":"m.s-1","parameterCategory":2,"la1":30.2992,"la2":30.254,"lo1":-89.0895,"lo2":-89.0443,"dy":0.0025,"dx":0.0025,"nx":19,"ny":19,"refTime":"2026-05-09T03:00:00:Z","depth":"0","parameterNumber":3,"parameterNumberName":"V-component_of_CURRENTS"},"data":[0,0,0,-0.1279,-0.1282,-0.141,-0.141,-0.1477,-0.1478,0,0,0,0,0,0,0,0,0,0,0,-0.1226,-0.1226,-0.1279,-0.1282,-0.141,-0.141,-0.1477,-0.1478,0,0,0,0,0,0,0,0,0,0,0,-0.1225,-0.1226,-0.1227,-0.1283,-0.141,-0.141,-0.1477,-0.1404,0,0,0,0,0,0,0,0,0,0,-0.1292,-0.1236,-0.1226,-0.1227,-0.1283,-0.1409,-0.141,-0.1402,-0.1409,-0.1393,0,-0.1413,0,-0.145,-0.148,-0.148,0,0,0,-0.128,-0.1231,-0.1288,-0.1227,-0.1284,-0.1409,-0.1351,-0.1406,-0.1414,-0.1401,-0.1415,-0.1418,-0.1451,-0.1481,-0.1481,-0.1475,-0.1474,0,0,-0.1273,-0.1226,-0.1283,-0.1293,-0.1317,-0.1347,-0.1355,-0.1412,-0.1403,-0.1415,-0.1421,-0.1452,-0.1481,-0.1481,-0.1475,-0.1475,0,0,0,-0.1254,-0.122,-0.1278,-0.1289,-0.1322,-0.1351,-0.136,-0.1401,-0.1427,-0.1422,-0.1453,-0.1481,-0.1481,-0.1475,-0.1475,-0.1448,0,0,0,-0.125,-0.1211,-0.1275,-0.1245,-0.1322,-0.1371,-0.1347,-0.1423,-0.1431,-0.1453,-0.1481,-0.1482,-0.1476,-0.1475,-0.1449,-0.1438,0,0,0,-0.122,-0.1207,-0.1227,-0.1243,-0.1304,-0.1372,-0.1401,-0.1426,-0.145,-0.148,-0.1482,-0.1476,-0.1475,-0.1451,-0.144,-0.1405,0,0,0,-0.1161,-0.1183,-0.1226,-0.126,-0.1302,-0.1381,-0.1401,-0.1447,-0.1472,-0.1481,-0.1476,-0.1475,-0.1451,-0.1441,-0.1407,-0.145,-0.1445,0,0,-0.116,-0.1181,-0.1206,-0.1249,-0.1322,-0.1363,-0.1404,-0.1442,-0.1449,-0.1451,-0.1452,-0.1449,-0.144,-0.1406,-0.1402,-0.1399,0,0,0,-0.1188,-0.1211,-0.1238,-0.1292,-0.1353,-0.1389,-0.1436,-0.1437,-0.1436,-0.1463,-0.144,-0.1435,-0.1414,-0.1443,-0.144,-0.1252,-0.1471,-0.1471,-0.1471,-0.112,-0.1187,-0.1234,-0.1317,-0.1352,-0.1403,-0.1413,-0.1416,-0.1429,-0.1409,-0.1406,-0.1352,-0.1383,-0.1381,-0.1186,-0.1398,-0.1398,-0.1398,-0.1398,-0.1142,-0.1182,-0.1242,-0.1314,-0.1352,-0.1381,-0.139,-0.1387,-0.1354,-0.1372,-0.1353,-0.1405,-0.1377,-0.117,-0.1396,-0.1396,-0.1396,-0.1397,-0.1397,-0.1116,-0.1145,-0.12,-0.129,-0.1328,-0.1368,-0.137,-0.1352,-0.1325,-0.1302,-0.1323,-0.1324,-0.1148,-0.1284,-0.1284,-0.1284,-0.1283,-0.1283,-0.1283,-0.1064,-0.1125,-0.1183,-0.127,-0.1313,-0.1346,-0.135,-0.1339,-0.1308,-0.1293,-0.1293,-0.1102,-0.1317,-0.1328,-0.128,-0.128,-0.1281,-0.1281,-0.1281,-0.1057,-0.1078,-0.1166,-0.1219,-0.1326,-0.1385,-0.1379,-0.1376,-0.1331,-0.1322,-0.1059,-0.1288,-0.1299,-0.1302,-0.1313,-0.1263,-0.1263,-0.1263,-0.1263,-0.1026,-0.1053,-0.1161,-0.1247,-0.1328,-0.1402,-0.1479,-0.1479,-0.1239,-0.1062,-0.094,-0.0948,-0.0957,-0.0946,-0.0957,-0.096,-0.0822,-0.0821,-0.082,-0.1021,-0.1061,-0.1128,-0.1238,-0.1341,-0.1439,-0.1559,-0.1571,-0.1112,-0.0777,-0.0657,-0.0676,-0.0663,-0.0693,-0.0665,-0.0696,-0.0699,0,0]}],[{"header":{"parameterUnit":"m.s-1","parameterCategory":2,"la1":30.2992,"la2":30.254,"lo1":-89.0895,"lo2":-89.0443,"dy":0.0025,"dx":0.0025,"nx":19,"ny":19,"refTime":"2026-05-09T03:00:00:Z","depth":"2","parameterNumber":2,"parameterNumberName":"U-component_of_CURRENTS"},"data":[0,0,0,-0.0788,-0.0791,-0.0882,-0.0883,-0.0882,-0.0881,0,0,0,0,0,0,0,0,0,0,0,-0.0743,-0.0744,-0.0788,-0.0791,-0.0882,-0.0883,-0.0882,-0.0881,0,0,0,0,0,0,0,0,0,0,0,-0.0743,-0.0743,-0.0744,-0.0791,-0.0882,-0.0883,-0.0882,-0.0841,0,0,0,0,0,0,0,0,0,0,-0.0766,-0.074,-0.0743,-0.0744,-0.0792,-0.0882,-0.0883,-0.084,-0.0843,-0.0808,0,-0.082,0,-0.0856,-0.0879,-0.0879,0,0,0,-0.0786,-0.0738,-0.0768,-0.0744,-0.0793,-0.0882,-0.084,-0.0843,-0.0846,-0.0812,-0.0821,-0.0822,-0.0856,-0.0879,-0.0879,-0.0883,-0.0883,0,0,-0.0781,-0.0753,-0.0766,-0.077,-0.0812,-0.0837,-0.0843,-0.0846,-0.0841,-0.0821,-0.0823,-0.0856,-0.0879,-0.0878,-0.0883,-0.0883,0,0,0,-0.0769,-0.0749,-0.0782,-0.0769,-0.0798,-0.084,-0.0846,-0.0841,-0.0853,-0.0824,-0.0856,-0.0879,-0.0878,-0.0882,-0.0883,-0.0905,0,0,0,-0.0766,-0.0744,-0.0779,-0.0763,-0.0799,-0.0837,-0.084,-0.0853,-0.0856,-0.0856,-0.0879,-0.0878,-0.0882,-0.0883,-0.0904,-0.0923,0,0,0,-0.074,-0.0741,-0.0752,-0.0761,-0.0806,-0.0839,-0.0852,-0.0855,-0.0875,-0.0879,-0.0878,-0.0882,-0.0882,-0.0903,-0.0921,-0.0964,0,0,0,-0.0708,-0.0753,-0.0751,-0.0807,-0.0805,-0.0891,-0.0853,-0.0888,-0.0895,-0.0878,-0.0882,-0.0883,-0.0902,-0.0919,-0.0962,-0.1043,-0.1058,0,0,-0.0757,-0.0757,-0.0794,-0.0797,-0.0886,-0.0878,-0.0948,-0.0922,-0.0891,-0.087,-0.0872,-0.0904,-0.0921,-0.0963,-0.1085,-0.1099,0,0,0,-0.0807,-0.0828,-0.0857,-0.09,-0.0949,-0.0979,-0.0974,-0.096,-0.093,-0.0902,-0.0913,-0.0923,-0.0949,-0.0994,-0.1005,-0.0886,-0.0886,-0.0886,-0.0886,-0.0847,-0.0874,-0.0932,-0.0969,-0.1007,-0.1039,-0.1054,-0.1025,-0.0977,-0.0959,-0.0947,-0.1004,-0.1052,-0.1061,-0.0949,-0.0949,-0.0949,-0.0949,-0.0949,-0.0918,-0.0945,-0.0963,-0.1012,-0.1033,-0.1058,-0.1085,-0.1055,-0.1048,-0.0989,-0.1013,-0.1023,-0.1075,-0.0951,-0.0951,-0.095,-0.095,-0.095,-0.095,-0.0933,-0.0946,-0.0952,-0.0988,-0.1014,-0.1039,-0.1093,-0.1084,-0.1063,-0.1082,-0.1124,-0.1125,-0.1026,-0.1077,-0.1077,-0.1077,-0.1078,-0.1078,-0.1078,-0.0927,-0.0945,-0.0936,-0.0969,-0.0969,-0.101,-0.1077,-0.1123,-0.1173,-0.117,-0.117,-0.1047,-0.1043,-0.1034,-0.1082,-0.1081,-0.1081,-0.1081,-0.108,-0.0946,-0.0918,-0.0918,-0.0912,-0.095,-0.1028,-0.1114,-0.1247,-0.1291,-0.1334,-0.1239,-0.1234,-0.1241,-0.1232,-0.1228,-0.1324,-0.1324,-0.1324,-0.1324,-0.0932,-0.0932,-0.0895,-0.0891,-0.0947,-0.1037,-0.1218,-0.134,-0.1365,-0.1305,-0.1304,-0.1274,-0.1267,-0.1271,-0.1262,-0.1257,-0.136,-0.1359,-0.1359,-0.0932,-0.0918,-0.0887,-0.0874,-0.0931,-0.1065,-0.1257,-0.1346,-0.1225,-0.135,-0.1209,-0.1346,-0.1302,-0.1289,-0.1294,-0.128,-0.1271,0,0]},{"header":{"parameterUnit":"m.s-1","parameterCategory":2,"la1":30.2992,"la2":30.254,"lo1":-89.0895,"lo2":-89.0443,"dy":0.0025,"dx":0.0025,"nx":19,"ny":19,"refTime":"2026-05-09T03:00:00:Z","depth":"2","parameterNumber":3,"parameterNumberName":"V-component_of_CURRENTS"},"data":[0,0,0,-0.0319,-0.032,-0.0294,-0.0293,-0.0168,-0.0167,0,0,0,0,0,0,0,0,0,0,0,-0.0338,-0.0339,-0.0319,-0.032,-0.0294,-0.0293,-0.0168,-0.0167,0,0,0,0,0,0,0,0,0,0,0,-0.0338,-0.0338,-0.0339,-0.032,-0.0294,-0.0293,-0.0169,-0.0205,0,0,0,0,0,0,0,0,0,0,-0.024,-0.0283,-0.0338,-0.0339,-0.032,-0.0294,-0.0293,-0.0208,-0.0203,-0.0161,0,-0.0186,0,-0.0178,-0.0159,-0.0158,0,0,0,-0.0296,-0.0288,-0.0279,-0.0339,-0.032,-0.0294,-0.0299,-0.0206,-0.02,-0.0155,-0.0184,-0.0179,-0.0176,-0.0158,-0.0158,-0.0123,-0.0124,0,0,-0.0297,-0.0323,-0.0284,-0.0277,-0.0348,-0.03,-0.0298,-0.0203,-0.0211,-0.0183,-0.0177,-0.0174,-0.0157,-0.0156,-0.0122,-0.0123,0,0,0,-0.0317,-0.0325,-0.032,-0.0282,-0.0287,-0.03,-0.0298,-0.0215,-0.0214,-0.0175,-0.0172,-0.0157,-0.0155,-0.0122,-0.0123,-0.022,0,0,0,-0.0317,-0.0338,-0.0321,-0.0335,-0.0291,-0.0265,-0.0312,-0.0221,-0.021,-0.0173,-0.0157,-0.0154,-0.0121,-0.0122,-0.0216,-0.0246,0,0,0,-0.0333,-0.0339,-0.0347,-0.0337,-0.0335,-0.0266,-0.026,-0.0219,-0.0208,-0.0158,-0.0154,-0.0121,-0.0122,-0.0212,-0.024,-0.0212,0,0,0,-0.0342,-0.038,-0.0349,-0.0383,-0.0336,-0.0317,-0.026,-0.0247,-0.0215,-0.0156,-0.0121,-0.0123,-0.0211,-0.0236,-0.021,-0.0095,-0.0097,0,0,-0.0391,-0.0386,-0.0403,-0.0375,-0.0387,-0.0316,-0.0313,-0.026,-0.0216,-0.014,-0.014,-0.0217,-0.0239,-0.0212,-0.0171,-0.017,0,0,0,-0.0418,-0.0438,-0.0432,-0.0439,-0.0403,-0.0376,-0.0315,-0.0285,-0.0259,-0.0208,-0.0216,-0.0227,-0.0206,-0.0132,-0.0132,-0.0129,-0.0129,-0.0129,-0.0128,-0.0488,-0.0477,-0.0508,-0.0492,-0.0477,-0.0417,-0.0389,-0.0339,-0.0292,-0.0314,-0.0307,-0.0352,-0.0278,-0.0276,-0.0312,-0.0313,-0.0313,-0.0313,-0.0314,-0.0553,-0.057,-0.0566,-0.06,-0.0564,-0.0556,-0.047,-0.0446,-0.0396,-0.0379,-0.0354,-0.024,-0.0281,-0.0321,-0.032,-0.0319,-0.0318,-0.0317,-0.0317,-0.0585,-0.0597,-0.0633,-0.0677,-0.0697,-0.0651,-0.0621,-0.0565,-0.0488,-0.048,-0.0342,-0.0338,-0.0375,-0.0466,-0.0466,-0.0466,-0.0466,-0.0466,-0.0466,-0.06,-0.0634,-0.0695,-0.0746,-0.0782,-0.0789,-0.0713,-0.0638,-0.0498,-0.0421,-0.0419,-0.0402,-0.0397,-0.0382,-0.0467,-0.0466,-0.0466,-0.0466,-0.0466,-0.0625,-0.0647,-0.0734,-0.0789,-0.086,-0.0859,-0.0775,-0.0573,-0.0483,-0.0378,-0.0348,-0.0351,-0.0288,-0.0286,-0.0266,-0.0316,-0.0316,-0.0316,-0.0316,-0.0625,-0.0647,-0.0755,-0.0838,-0.089,-0.0884,-0.074,-0.0422,-0.0197,-0.0017,-0.003,0.002,0.0006,0.009,0.0083,0.0112,0.0161,0.0162,0.0163,-0.0624,-0.0667,-0.0735,-0.0839,-0.091,-0.0892,-0.0731,-0.0327,0.0153,0.0185,0.009,-0.0291,-0.0253,-0.026,-0.0157,-0.0158,-0.0122,0,0]}],[{"header":{"parameterUnit":"m.s-1","parameterCategory":2,"la1":30.2992,"la2":30.254,"lo1":-89.0895,"lo2":-89.0443,"dy":0.0025,"dx":0.0025,"nx":19,"ny":19,"refTime":"2026-05-09T03:00:00:Z","depth":"4","parameterNumber":2,"parameterNumberName":"U-component_of_CURRENTS"},"data":[0,0,0,-0.0732,-0.0734,-0.0849,-0.0849,-0.0989,-0.099,0,0,0,0,0,0,0,0,0,0,0,-0.0699,-0.0699,-0.0732,-0.0734,-0.0849,-0.0849,-0.0989,-0.0991,0,0,0,0,0,0,0,0,0,0,0,-0.0699,-0.0699,-0.07,-0.0734,-0.0848,-0.0849,-0.0989,-0.0908,0,0,0,0,0,0,0,0,0,0,-0.0799,-0.0773,-0.0699,-0.07,-0.0735,-0.0848,-0.0849,-0.0904,-0.0913,-0.0931,0,-0.0946,0,-0.0963,-0.0998,-0.0999,0,0,0,-0.0749,-0.0766,-0.0783,-0.07,-0.0736,-0.0848,-0.0801,-0.0909,-0.0919,-0.0942,-0.0948,-0.0954,-0.0965,-0.0999,-0.1,-0.117,-0.117,0,0,-0.0743,-0.0735,-0.0777,-0.0789,-0.0763,-0.0797,-0.0805,-0.0915,-0.0932,-0.0949,-0.0957,-0.0967,-0.1,-0.1001,-0.1169,-0.117,0,0,0,-0.0715,-0.0731,-0.0746,-0.0784,-0.08,-0.08,-0.0809,-0.0928,-0.0929,-0.0958,-0.0969,-0.1001,-0.1002,-0.1168,-0.1169,-0.1208,0,0,0,-0.0711,-0.0713,-0.0743,-0.0742,-0.0798,-0.0868,-0.0818,-0.0922,-0.0934,-0.0968,-0.1001,-0.1003,-0.1166,-0.1168,-0.1205,-0.1236,0,0,0,-0.0694,-0.0711,-0.072,-0.0741,-0.0781,-0.0867,-0.0876,-0.0925,-0.094,-0.0999,-0.1003,-0.1166,-0.1168,-0.1202,-0.123,-0.119,0,0,0,-0.0688,-0.0707,-0.0721,-0.0765,-0.078,-0.0862,-0.0876,-0.0957,-0.1011,-0.1001,-0.1167,-0.1169,-0.1201,-0.1227,-0.1188,-0.1001,0,0,0,-0.0704,-0.071,-0.0739,-0.0753,-0.0826,-0.0847,-0.0948,-0.1024,-0.1053,-0.1129,-0.1134,-0.1206,-0.123,-0.119,-0.1141,0,0,0,0,-0.074,-0.076,-0.0786,-0.0838,-0.089,-0.0969,-0.1028,-0.1072,-0.1176,-0.1093,-0.1243,-0.1258,-0.1229,-0.1118,-0.118,-0.118,-0.118,-0.1179,-0.1179,-0.0742,-0.0785,-0.0845,-0.0907,-0.0974,-0.1064,-0.1127,-0.1202,-0.122,-0.1287,-0.1316,-0.1355,-0.1245,-0.1339,-0.134,-0.134,-0.134,-0.134,-0.134,-0.0752,-0.0793,-0.0882,-0.0951,-0.1049,-0.1141,-0.1265,-0.1295,-0.1375,-0.1402,-0.137,-0.1204,-0.1345,-0.1344,-0.1344,-0.1343,-0.1343,-0.1342,-0.1342,-0.0726,-0.0759,-0.0807,-0.0948,-0.1073,-0.1206,-0.1255,-0.1357,-0.1425,-0.1432,-0.127,-0.1371,-0.1332,-0.1407,-0.1407,-0.1407,-0.1407,-0.1407,-0.1407,-0.0674,-0.0728,-0.079,-0.094,-0.1021,-0.1126,-0.1271,-0.1277,-0.1373,-0.1311,-0.1447,-0.1376,-0.1374,-0.1336,-0.1407,-0.1407,-0.1407,-0.1407,-0.1407,-0.0637,-0.0647,-0.0763,-0.0819,-0.0937,-0.0963,-0.1098,-0.1141,-0.1139,-0.1117,-0.1207,-0.1216,-0.117,-0.1173,-0.1125,-0.1136,-0.1134,-0.1132,0,-0.0596,-0.0609,-0.0683,-0.0699,-0.0746,-0.0814,-0.0792,-0.0861,-0.0981,-0.0961,-0.111,-0.1208,-0.1216,-0.1161,-0.116,-0.1102,0,0,0,-0.0556,-0.0603,-0.0586,-0.0594,-0.0602,-0.0641,-0.0776,-0.0794,-0.0959,-0.0949,-0.1076,-0.1091,-0.1234,-0.1406,-0.1359,-0.1356,-0.1292,0,0]},{"header":{"parameterUnit":"m.s-1","parameterCategory":2,"la1":30.2992,"la2":30.254,"lo1":-89.0895,"lo2":-89.0443,"dy":0.0025,"dx":0.0025,"nx":19,"ny":19,"refTime":"2026-05-09T03:00:00:Z","depth":"4","parameterNumber":3,"parameterNumberName":"V-component_of_CURRENTS"},"data":[0,0,0,0.027,0.027,0.0297,0.0297,0.0383,0.0384,0,0,0,0,0,0,0,0,0,0,0,0.0261,0.0261,0.0269,0.027,0.0297,0.0297,0.0383,0.0384,0,0,0,0,0,0,0,0,0,0,0,0.0261,0.0261,0.0261,0.027,0.0297,0.0297,0.0383,0.0353,0,0,0,0,0,0,0,0,0,0,0.0321,0.0311,0.0261,0.0261,0.027,0.0297,0.0297,0.0351,0.0355,0.0381,0,0.0376,0,0.0377,0.0389,0.039,0,0,0,0.0283,0.0307,0.0303,0.0261,0.027,0.0297,0.0288,0.0353,0.0357,0.0386,0.0377,0.038,0.0378,0.039,0.039,0.0447,0.0447,0,0,0.0281,0.0283,0.0299,0.0305,0.0266,0.0287,0.0289,0.0355,0.0363,0.0377,0.0381,0.0379,0.0391,0.0391,0.0447,0.0447,0,0,0,0.0268,0.0282,0.0275,0.0302,0.03,0.0288,0.029,0.036,0.0354,0.0382,0.038,0.0391,0.0392,0.0447,0.0447,0.0368,0,0,0,0.0268,0.0273,0.0274,0.0278,0.0298,0.0326,0.0294,0.035,0.0357,0.038,0.0391,0.0393,0.0447,0.0447,0.037,0.033,0,0,0,0.0262,0.0273,0.0269,0.0277,0.0281,0.0324,0.0323,0.0351,0.0356,0.039,0.0393,0.0447,0.0447,0.0372,0.0334,0.0321,0,0,0,0.0272,0.0244,0.0269,0.0238,0.0281,0.0264,0.0322,0.0333,0.0356,0.0391,0.0447,0.0447,0.0373,0.0337,0.0323,0.0352,0,0,0,0.0234,0.024,0.0217,0.0239,0.0196,0.0262,0.0243,0.0305,0.0369,0.0432,0.0433,0.037,0.0335,0.0321,0.0352,0,0,0,0,0.0203,0.0183,0.0175,0.016,0.0167,0.0178,0.0241,0.0283,0.035,0.0381,0.0392,0.0372,0.0366,0.0391,0.0447,0.0447,0.0447,0.0447,0.0447,0.0156,0.0143,0.0093,0.0081,0.0085,0.0129,0.0148,0.0225,0.03,0.0328,0.0324,0.0281,0.0306,0.0347,0.0347,0.0346,0.0346,0.0346,0.0346,0.0066,0.0031,0.0024,-0.0028,-0.0006,0.0001,0.008,0.0137,0.0207,0.0279,0.0277,0.0326,0.0338,0.034,0.0341,0.0342,0.0342,0.0343,0.0343,0.0028,0.0006,-0.003,-0.0101,-0.0119,-0.0075,-0.0068,0.0006,0.0134,0.0133,0.0211,0.0237,0.0226,0.016,0.0159,0.0159,0.0159,0.0159,0.0159,0.0007,-0.0036,-0.0108,-0.0173,-0.0205,-0.0214,-0.0144,-0.0078,0.0038,0.0128,0.0135,0.0219,0.0225,0.0217,0.0155,0.0156,0.0156,0.0156,0.0157,-0.0058,-0.0054,-0.0164,-0.022,-0.03,-0.0307,-0.0261,-0.0097,-0.0025,0.0075,0.013,0.0132,0.0168,0.0175,0.0167,0.0087,0.0087,0.0087,0,-0.0075,-0.0092,-0.0203,-0.0289,-0.0344,-0.0345,-0.0229,-0.0128,0.0006,0.0001,-0.0015,0.0038,0.0044,0.0077,0.0084,0.0071,0,0,0,-0.013,-0.0141,-0.0216,-0.0283,-0.0346,-0.0248,-0.0191,-0.0121,-0.0042,0.008,0.009,0.009,0.0128,0.0144,0.0204,0.0212,0.0203,0,0]}]]